{"data":{"norad_id":65888,"intl_designator":"2025-224G","name":"STARLINK-35362","alt_names":[],"object_type":"PAYLOAD","status":"ACTIVE","operator":null,"country":"US","launch_date":"2025-10-07","launch_site_code":"AFETR","launch_vehicle":null,"mission":null,"orbit_class":"UNKNOWN","rcs_meters":null,"size_class":null,"mass_kg":null,"dimensions":null,"purposes":["comms"],"wikipedia_slug":null,"has_3d_model":false,"image_url":null,"decayed_at":null,"tle_current":{"epoch":"2026-05-25T01:17:05.477568Z","epoch_age_seconds":77350,"freshness":"FRESH","line1":"1 65888U 25224G   26145.05353562  .00016671  00000+0  57374-3 0  9996","line2":"2 65888  53.1603  16.8142 0001259  83.0918 277.0226 15.30198622 36511","mean_motion":15.30198622,"eccentricity":0.0001259,"inclination_deg":53.1603,"raan_deg":16.8142,"arg_perigee_deg":83.0918,"mean_anomaly_deg":277.0226,"bstar":0.00057374,"rev_number":3651,"period_min":94.10543045176,"perigee_km":474.35634633848,"apogee_km":476.08202142558,"semimajor_km":6853.356183882,"source":"CELESTRAK","updated_at":"2026-05-25T13:38:20.980007Z"}}}